AVA621 SKBO-SKCC

Flight info

Callsign AVA621
Flight time 0h 50m
Altitude 29000
Route OSUSU4R OSUSU BUV ESNUT ESNUT2A
Aircraft A320/M-SDE3FGHIRWY/LB1

Departure

Time 2026-04-25 02:19
Airport El Dorado International Airport (SKBO)

Arrival

Time 2026-04-25 03:09
Airport Camilo Daza International Airport (SKCC)
Time Latitude Longitude Altitude Speed Heading
2026-04-25 01:28 4.70050 -74.14222 8362 ft 0 kts 214°
2026-04-25 01:53 4.70051 -74.14222 8361 ft 2 kts 214°
2026-04-25 01:53 4.70068 -74.14210 8362 ft 3 kts 214°
2026-04-25 01:54 4.70085 -74.14199 8361 ft 3 kts 214°
2026-04-25 01:54 4.70102 -74.14187 8362 ft 3 kts 214°
2026-04-25 01:54 4.70116 -74.14173 8361 ft 3 kts 255°
2026-04-25 01:54 4.70118 -74.14159 8361 ft 3 kts 290°
2026-04-25 01:55 4.70127 -74.14170 8361 ft 0 kts 308°
2026-04-25 01:58 4.70129 -74.14172 8362 ft 2 kts 308°
2026-04-25 01:58 4.70154 -74.14203 8361 ft 9 kts 314°
2026-04-25 01:59 4.70202 -74.14212 8361 ft 0 kts 16°
2026-04-25 01:59 4.70205 -74.14211 8361 ft 3 kts 16°
2026-04-25 01:59 4.70259 -74.14224 8361 ft 11 kts 321°
2026-04-25 01:59 4.70305 -74.14283 8361 ft 8 kts 307°
2026-04-25 02:00 4.70309 -74.14289 8361 ft 0 kts 307°
2026-04-25 02:00 4.70319 -74.14301 8361 ft 6 kts 307°
2026-04-25 02:00 4.70361 -74.14357 8361 ft 13 kts 307°
2026-04-25 02:00 4.70410 -74.14414 8361 ft 3 kts 342°
2026-04-25 02:01 4.70444 -74.14399 8361 ft 9 kts 15°
2026-04-25 02:01 4.70516 -74.14447 8361 ft 17 kts 307°
2026-04-25 02:01 4.70599 -74.14554 8361 ft 20 kts 306°
2026-04-25 02:01 4.70684 -74.14668 8361 ft 21 kts 308°
2026-04-25 02:02 4.70771 -74.14785 8361 ft 21 kts 307°
2026-04-25 02:02 4.70860 -74.14904 8361 ft 21 kts 307°
2026-04-25 02:02 4.70952 -74.15024 8361 ft 22 kts 308°
2026-04-25 02:02 4.71042 -74.15144 8361 ft 18 kts 306°
2026-04-25 02:03 4.71115 -74.15239 8361 ft 18 kts 307°
2026-04-25 02:03 4.71212 -74.15299 8361 ft 15 kts
2026-04-25 02:03 4.71231 -74.15290 8361 ft 0 kts 31°
2026-04-25 02:16 4.71234 -74.15288 8361 ft 3 kts 31°
2026-04-25 02:17 4.71271 -74.15252 8361 ft 12 kts 50°
2026-04-25 02:17 4.71313 -74.15183 8360 ft 12 kts 87°
2026-04-25 02:17 4.71294 -74.15144 8360 ft 0 kts 127°
2026-04-25 02:17 4.71292 -74.15142 8360 ft 3 kts 127°
2026-04-25 02:18 4.71194 -74.15016 8359 ft 57 kts 127°
2026-04-25 02:18 4.70811 -74.14505 8362 ft 123 kts 127°
2026-04-25 02:18 4.70177 -74.13667 8361 ft 176 kts 127°
2026-04-25 02:18 4.69395 -74.12626 8821 ft 186 kts 127°
2026-04-25 02:19 4.68693 -74.11556 9641 ft 184 kts 107°
2026-04-25 02:19 4.68727 -74.10319 10269 ft 182 kts 64°
2026-04-25 02:19 4.69645 -74.09407 10429 ft 197 kts 21°
2026-04-25 02:19 4.70979 -74.09041 10693 ft 209 kts 13°
2026-04-25 02:20 4.72449 -74.08648 10895 ft 228 kts 16°
2026-04-25 02:20 4.74027 -74.08160 11167 ft 244 kts 17°
2026-04-25 02:20 4.75679 -74.07623 11770 ft 248 kts 17°
2026-04-25 02:20 4.77303 -74.07078 12440 ft 250 kts 18°
2026-04-25 02:21 4.78946 -74.06507 13170 ft 250 kts 18°
2026-04-25 02:21 4.80640 -74.05911 13524 ft 267 kts 18°
2026-04-25 02:21 4.82446 -74.05280 13882 ft 284 kts 19°
2026-04-25 02:21 4.84387 -74.04604 14072 ft 307 kts 18°
2026-04-25 02:22 4.86481 -74.03879 14221 ft 329 kts 18°
2026-04-25 02:22 4.88721 -74.03110 14338 ft 351 kts 18°
2026-04-25 02:22 4.91106 -74.02296 14457 ft 372 kts 18°
2026-04-25 02:22 4.93593 -74.01453 14796 ft 382 kts 18°
2026-04-25 02:23 4.96129 -74.00596 15309 ft 386 kts 18°
2026-04-25 02:23 4.98687 -73.99731 15854 ft 389 kts 18°
2026-04-25 02:23 5.01265 -73.98857 16413 ft 393 kts 17°
2026-04-25 02:23 5.03885 -73.98044 16856 ft 396 kts 15°
2026-04-25 02:24 5.06548 -73.97332 16966 ft 396 kts 13°
2026-04-25 02:24 5.09228 -73.96688 16985 ft 396 kts 12°
2026-04-25 02:24 5.11005 -73.96281 16984 ft 396 kts 12°
2026-04-25 02:24 5.13689 -73.95668 16961 ft 396 kts 12°
2026-04-25 02:25 5.16372 -73.95039 16962 ft 396 kts 12°
2026-04-25 02:25 5.19050 -73.94392 16963 ft 396 kts 12°
2026-04-25 02:25 5.21726 -73.93730 16963 ft 396 kts 13°
2026-04-25 02:25 5.24404 -73.93059 16976 ft 396 kts 13°
2026-04-25 02:26 5.27077 -73.92386 17028 ft 399 kts 13°
2026-04-25 02:26 5.29779 -73.91707 17617 ft 401 kts 13°
2026-04-25 02:26 5.32490 -73.91027 18184 ft 404 kts 13°
2026-04-25 02:26 5.35228 -73.90343 18706 ft 407 kts 13°
2026-04-25 02:27 5.37985 -73.89657 19188 ft 410 kts 13°
2026-04-25 02:27 5.40763 -73.88968 19659 ft 413 kts 13°
2026-04-25 02:27 5.43562 -73.88273 20101 ft 416 kts 13°
2026-04-25 02:27 5.46379 -73.87574 20553 ft 419 kts 13°
2026-04-25 02:28 5.49219 -73.86867 20998 ft 422 kts 13°
2026-04-25 02:28 5.52070 -73.86123 21397 ft 426 kts 17°
2026-04-25 02:28 5.54819 -73.84986 21806 ft 430 kts 27°
2026-04-25 02:28 5.57441 -73.83525 22185 ft 432 kts 28°
2026-04-25 02:29 5.60075 -73.82048 22582 ft 435 kts 28°
2026-04-25 02:29 5.62727 -73.80563 22990 ft 438 kts 28°
2026-04-25 02:29 5.65396 -73.79072 23395 ft 440 kts 28°
2026-04-25 02:29 5.68080 -73.77574 23770 ft 443 kts 28°
2026-04-25 02:30 5.70782 -73.76064 24047 ft 445 kts 28°
2026-04-25 02:30 5.73492 -73.74547 24341 ft 448 kts 28°
2026-04-25 02:30 5.76218 -73.73019 24626 ft 450 kts 29°
2026-04-25 02:30 5.78959 -73.71483 24916 ft 452 kts 29°
2026-04-25 02:31 5.81712 -73.69940 25196 ft 454 kts 29°
2026-04-25 02:31 5.84474 -73.68389 25472 ft 456 kts 29°
2026-04-25 02:31 5.87221 -73.66848 25705 ft 459 kts 29°
2026-04-25 02:31 5.90011 -73.65285 25964 ft 461 kts 29°
2026-04-25 02:32 5.92820 -73.63716 26288 ft 462 kts 29°
2026-04-25 02:32 5.95637 -73.62143 26574 ft 464 kts 30°
2026-04-25 02:32 5.98467 -73.60562 26844 ft 466 kts 30°
2026-04-25 02:32 6.01306 -73.58973 27061 ft 468 kts 30°
2026-04-25 02:33 6.04158 -73.57376 27314 ft 470 kts 30°
2026-04-25 02:33 6.07020 -73.55771 27551 ft 472 kts 30°
2026-04-25 02:33 6.09897 -73.54159 27789 ft 474 kts 30°
2026-04-25 02:33 6.12786 -73.52544 28024 ft 476 kts 30°
2026-04-25 02:34 6.15685 -73.50923 28234 ft 478 kts 30°
2026-04-25 02:34 6.18596 -73.49294 28456 ft 480 kts 30°
2026-04-25 02:34 6.21516 -73.47660 28676 ft 482 kts 30°
2026-04-25 02:34 6.24454 -73.46016 28833 ft 484 kts 30°
2026-04-25 02:35 6.27403 -73.44364 29000 ft 486 kts 30°
2026-04-25 02:35 6.30360 -73.42705 29117 ft 486 kts 30°
2026-04-25 02:35 6.33297 -73.41056 29139 ft 482 kts 30°
2026-04-25 02:36 6.39140 -73.37777 29143 ft 480 kts 30°
2026-04-25 02:36 6.44978 -73.34504 29129 ft 480 kts 30°
2026-04-25 02:37 6.50810 -73.31230 29132 ft 480 kts 30°
2026-04-25 02:37 6.56638 -73.27962 29100 ft 479 kts 30°
2026-04-25 02:38 6.62456 -73.24696 29092 ft 478 kts 30°
2026-04-25 02:38 6.68263 -73.21431 29107 ft 478 kts 30°
2026-04-25 02:39 6.74073 -73.18166 29090 ft 478 kts 30°
2026-04-25 02:39 6.79846 -73.14931 29091 ft 478 kts 30°
2026-04-25 02:40 6.85657 -73.11670 29076 ft 478 kts 30°
2026-04-25 02:40 6.91465 -73.08401 29107 ft 478 kts 30°
2026-04-25 02:41 6.97276 -73.05125 29103 ft 479 kts 30°
2026-04-25 02:41 7.03119 -73.01832 29125 ft 485 kts 30°
2026-04-25 02:42 7.09001 -72.98523 28357 ft 482 kts 30°
2026-04-25 02:42 7.11922 -72.96883 27601 ft 480 kts 30°
2026-04-25 02:42 7.14839 -72.95245 26709 ft 480 kts 30°
2026-04-25 02:42 7.17752 -72.93606 25881 ft 480 kts 30°
2026-04-25 02:43 7.20657 -72.91969 25029 ft 477 kts 29°
2026-04-25 02:43 7.23538 -72.90345 24216 ft 473 kts 29°
2026-04-25 02:43 7.26399 -72.88731 23352 ft 469 kts 29°
2026-04-25 02:43 7.29238 -72.87132 22409 ft 466 kts 29°
2026-04-25 02:44 7.32062 -72.85543 21499 ft 464 kts 28°
2026-04-25 02:44 7.34867 -72.83964 20610 ft 458 kts 28°
2026-04-25 02:44 7.37595 -72.82426 19742 ft 442 kts 28°
2026-04-25 02:44 7.40243 -72.80932 18925 ft 429 kts 28°
2026-04-25 02:45 7.42804 -72.79486 18036 ft 415 kts 28°
2026-04-25 02:45 7.45287 -72.78084 17284 ft 401 kts 28°
2026-04-25 02:45 7.47634 -72.76759 17084 ft 373 kts 28°
2026-04-25 02:45 7.49896 -72.75559 16869 ft 361 kts 22°
2026-04-25 02:46 7.52263 -72.74770 16848 ft 359 kts 12°
2026-04-25 02:46 7.54680 -72.74236 16304 ft 360 kts 11°
2026-04-25 02:46 7.57115 -72.73731 15936 ft 356 kts 10°
2026-04-25 02:46 7.59526 -72.73243 15350 ft 349 kts 11°
2026-04-25 02:47 7.61891 -72.72766 14666 ft 345 kts 11°
2026-04-25 02:47 7.64227 -72.72294 13983 ft 340 kts 11°
2026-04-25 02:47 7.66533 -72.71822 13227 ft 336 kts 11°
2026-04-25 02:47 7.68809 -72.71351 12452 ft 331 kts 11°
2026-04-25 02:48 7.71049 -72.70884 11723 ft 327 kts 11°
2026-04-25 02:48 7.73256 -72.70423 11133 ft 319 kts 11°
2026-04-25 02:48 7.75353 -72.69985 10973 ft 296 kts 11°
2026-04-25 02:48 7.77317 -72.69575 10686 ft 282 kts 11°
2026-04-25 02:49 7.79221 -72.69182 10263 ft 276 kts 11°
2026-04-25 02:49 7.81097 -72.68796 9841 ft 274 kts 11°
2026-04-25 02:49 7.82954 -72.68412 9363 ft 272 kts 11°
2026-04-25 02:49 7.84807 -72.68026 8933 ft 273 kts 11°
2026-04-25 02:50 7.86672 -72.67636 8543 ft 273 kts 11°
2026-04-25 02:50 7.88525 -72.67249 8136 ft 273 kts 11°
2026-04-25 02:50 7.90371 -72.66864 7844 ft 269 kts 12°
2026-04-25 02:50 7.92199 -72.66483 7434 ft 269 kts 11°
2026-04-25 02:51 7.94047 -72.66106 6998 ft 271 kts 11°
2026-04-25 02:51 7.95907 -72.65736 6455 ft 277 kts 11°
2026-04-25 02:51 7.97817 -72.65365 5708 ft 279 kts 12°
2026-04-25 02:51 7.99674 -72.64939 5233 ft 264 kts 17°
2026-04-25 02:52 8.01150 -72.64064 5078 ft 238 kts 50°
2026-04-25 02:52 8.01831 -72.62633 4778 ft 223 kts 81°
2026-04-25 02:52 8.01728 -72.61108 4401 ft 214 kts 103°
2026-04-25 02:52 8.01431 -72.59703 4211 ft 197 kts 102°
2026-04-25 02:53 8.01159 -72.58391 3853 ft 185 kts 102°
2026-04-25 02:53 8.00911 -72.57196 3621 ft 166 kts 102°
2026-04-25 02:53 8.00685 -72.56085 3333 ft 156 kts 102°
2026-04-25 02:53 8.00465 -72.55039 3140 ft 150 kts 103°
2026-04-25 02:54 8.00243 -72.54011 2939 ft 149 kts 102°
2026-04-25 02:54 8.00048 -72.52998 2759 ft 149 kts 101°
2026-04-25 02:54 7.99854 -72.51972 2544 ft 148 kts 102°
2026-04-25 02:54 7.99507 -72.51001 2381 ft 147 kts 124°
2026-04-25 02:55 7.98779 -72.50300 2147 ft 144 kts 150°
2026-04-25 02:55 7.97839 -72.49987 1949 ft 142 kts 172°
2026-04-25 02:55 7.96862 -72.49877 1773 ft 140 kts 183°
2026-04-25 02:55 7.95918 -72.50099 1649 ft 140 kts 198°
2026-04-25 02:56 7.94984 -72.50392 1490 ft 141 kts 200°
2026-04-25 02:56 7.94072 -72.50735 1297 ft 140 kts 200°
2026-04-25 02:56 7.93116 -72.51051 1259 ft 156 kts 199°
2026-04-25 02:56 7.92079 -72.51384 2100 ft 160 kts 197°
2026-04-25 02:57 7.90983 -72.51720 2921 ft 172 kts 197°
2026-04-25 02:57 7.89764 -72.52074 3264 ft 195 kts 197°
2026-04-25 02:57 7.88392 -72.52463 3634 ft 217 kts 197°
2026-04-25 02:57 7.86916 -72.52885 4345 ft 219 kts 197°
2026-04-25 02:58 7.85429 -72.53317 5074 ft 225 kts 197°
2026-04-25 02:58 7.83917 -72.53773 5833 ft 229 kts 197°
2026-04-25 02:58 7.82381 -72.54238 6589 ft 233 kts 197°
2026-04-25 02:58 7.80837 -72.54795 6904 ft 236 kts 211°
2026-04-25 02:59 7.79635 -72.55891 6998 ft 234 kts 238°
2026-04-25 02:59 7.79074 -72.57408 7018 ft 232 kts 265°
2026-04-25 02:59 7.79265 -72.59005 7021 ft 231 kts 292°
2026-04-25 02:59 7.80149 -72.60336 7021 ft 230 kts 319°
2026-04-25 03:00 7.81540 -72.61127 7022 ft 233 kts 346°
2026-04-25 03:00 7.83145 -72.61191 7013 ft 233 kts 13°
2026-04-25 03:00 7.84603 -72.60505 7012 ft 233 kts 40°
2026-04-25 03:00 7.85751 -72.59346 7013 ft 234 kts 46°
2026-04-25 03:01 7.86879 -72.58157 7010 ft 234 kts 46°
2026-04-25 03:01 7.88004 -72.56971 6929 ft 233 kts 45°
2026-04-25 03:01 7.89125 -72.55793 6645 ft 231 kts 46°
2026-04-25 03:01 7.90240 -72.54686 6563 ft 219 kts 35°
2026-04-25 03:02 7.91544 -72.54068 6516 ft 206 kts 11°
2026-04-25 03:02 7.92948 -72.54040 6473 ft 202 kts 347°
2026-04-25 03:02 7.94251 -72.54592 6390 ft 201 kts 323°
2026-04-25 03:02 7.95191 -72.55596 6350 ft 201 kts 300°
2026-04-25 03:03 7.95788 -72.56876 6309 ft 204 kts 294°
2026-04-25 03:03 7.96371 -72.58200 6191 ft 208 kts 294°
2026-04-25 03:03 7.96961 -72.59530 6013 ft 208 kts 295°
2026-04-25 03:03 7.97553 -72.60861 5812 ft 208 kts 294°
2026-04-25 03:04 7.98146 -72.62197 5624 ft 208 kts 294°
2026-04-25 03:04 7.98943 -72.63402 5400 ft 207 kts 317°
2026-04-25 03:04 8.00133 -72.64194 5169 ft 206 kts 339°
2026-04-25 03:05 8.02910 -72.64198 4696 ft 203 kts 23°
2026-04-25 03:05 8.04089 -72.63424 4408 ft 203 kts 46°
2026-04-25 03:05 8.04882 -72.62259 4133 ft 202 kts 68°
2026-04-25 03:05 8.05178 -72.60886 3869 ft 201 kts 90°
2026-04-25 03:06 8.04948 -72.59512 3632 ft 199 kts 112°
2026-04-25 03:06 8.04235 -72.58328 3407 ft 197 kts 134°
2026-04-25 03:06 8.03170 -72.57502 3176 ft 191 kts 150°
2026-04-25 03:06 8.02064 -72.56832 2926 ft 176 kts 150°
2026-04-25 03:07 8.01074 -72.56229 2755 ft 159 kts 150°
2026-04-25 03:07 8.00154 -72.55670 2542 ft 152 kts 151°
2026-04-25 03:07 7.99261 -72.55126 2339 ft 148 kts 151°
2026-04-25 03:07 7.98382 -72.54594 2162 ft 147 kts 151°
2026-04-25 03:08 7.97504 -72.54078 1978 ft 144 kts 152°
2026-04-25 03:08 7.96640 -72.53573 1742 ft 143 kts 150°
2026-04-25 03:08 7.95803 -72.53048 1517 ft 141 kts 148°
2026-04-25 03:08 7.94980 -72.52514 1365 ft 141 kts 149°
2026-04-25 03:09 7.94147 -72.52007 1150 ft 139 kts 151°
2026-04-25 03:09 7.93338 -72.51530 1038 ft 122 kts 150°
2026-04-25 03:09 7.92842 -72.51226 1027 ft 54 kts 148°
2026-04-25 03:09 7.92641 -72.51099 1023 ft 16 kts 145°
2026-04-25 03:10 7.92636 -72.51062 1024 ft 4 kts 52°
2026-04-25 03:10 7.92714 -72.51029 1024 ft 20 kts 11°
2026-04-25 03:10 7.92798 -72.50964 1024 ft 14 kts 61°
2026-04-25 03:10 7.92853 -72.50901 1022 ft 10 kts 29°
2026-04-25 03:11 7.92875 -72.50855 1024 ft 6 kts 87°
2026-04-25 03:11 7.92857 -72.50813 1023 ft 12 kts 137°
2026-04-25 03:11 7.92791 -72.50785 1023 ft 8 kts 197°
2026-04-25 03:11 7.92774 -72.50794 1024 ft 0 kts 209°